sat.trackr.live / text

‹ back to catalog

STARLINK-1569

NORAD 46039 · 2020-055N

PAYLOAD ACTIVE UNKNOWN

§ Identity

Operator
Country
US
Launch date
2020-08-07
Launch site
AFETR
Launch vehicle
Mass (kg)
RCS (m²)

Purposes: comms

External: N2YO · Heavens-Above · Gunter

§ Orbital elements

Epoch: 2026-09-19T18:43:03.372960Z

Period
94.01 min
Inclination
53.1617°
Eccentricity
0.0001674
Mean motion
15.31696599 rev/d
Perigee alt
469.6 km
Apogee alt
471.9 km
Semi-major
6,848.9 km
B*
-8.6210e-6
RAAN
304.1568°
Arg perigee
63.7660°
Mean anomaly
296.3514°
Rev number
33,861

§ Raw data

STARLINK-15691 46039U 20055N   26262.77990015 -.00000633  00000+0 -86210-5 0  99952 46039  53.1617 304.1568 0001674  63.7660 296.3514 15.31696599338615

JSON: /api/v1/satellites/46039 · /tle

For live sub-satellite position, see the globe view (requires WebGL).

§ Visibility from observer

Set your observer location to see the next 7 days of passes ≥ 10°. The values pass through the URL so the page stays shareable.

No JS? Fill the form by hand. The geolocation button needs JavaScript.